GW5939 Weather Reports


Display with metric or nautical units.
time (UTC)temp
F
wind
direction
speed
MPH
gust
MPH
rain 1hr
in
rain 24hr
in
rain mn
in
humidity
%
barometer
mb
20260505204933 83 56 1.0 6.0 0.00 0.00 0.00 80 1010.2
20260505204432 83 52 2.0 6.0 0.00 0.00 0.00 80 1010.2
20260505203929 83 53 2.0 6.0 0.00 0.00 0.00 79 1010.2
20260505203425 83 60 1.0 4.0 0.00 0.00 0.00 79 1010.2
20260505202921 83 47 4.0 7.0 0.00 0.00 0.00 79 1009.9
20260505202418 83 48 2.0 6.0 0.00 0.00 0.00 79 1009.9
20260505201914 83 48 2.0 6.0 0.00 0.00 0.00 79 1009.9
20260505201411 83 72 1.0 3.0 0.00 0.00 0.00 79 1009.9
20260505200910 83 72 1.0 4.0 0.00 0.00 0.00 79 1009.9
20260505200406 83 58 3.0 5.0 0.00 0.00 0.00 78 1009.9
20260505195902 83 49 3.0 7.0 0.00 0.00 0.00 78 1009.5
20260505195359 83 120 4.0 10.0 0.00 0.00 0.00 79 1009.5
20260505194856 83 91 3.0 6.0 0.00 0.00 0.00 79 1009.5
20260505194354 83 91 3.0 6.0 0.00 0.00 0.00 79 1009.5
20260505193854 82 64 5.0 10.0 0.00 0.00 0.00 79 1009.5
20260505193352 82 109 4.0 7.0 0.00 0.00 0.00 79 1009.5
20260505192850 82 42 3.0 6.0 0.00 0.00 0.00 80 1009.5
20260505192348 82 36 3.0 10.0 0.00 0.00 0.00 80 1009.5
20260505191845 82 128 2.0 6.0 0.00 0.00 0.00 80 1009.5
20260505191344 82 73 2.0 4.0 0.00 0.00 0.00 80 1009.5
20260505190840 82 103 4.0 11.0 0.00 0.00 0.00 80 1009.5
20260505190335 82 37 3.0 5.0 0.00 0.00 0.00 80 1009.5
20260505185831 82 129 4.0 7.0 0.00 0.00 0.00 80 1009.5
20260505185328 82 63 2.0 6.0 0.00 0.00 0.00 80 1009.5
20260505184824 82 2 1.0 5.0 0.00 0.00 0.00 80 1009.5
20260505184321 82 122 2.0 4.0 0.00 0.00 0.00 81 1009.2
20260505183818 82 39 2.0 4.0 0.00 0.00 0.00 81 1009.2
20260505183315 82 47 6.0 8.0 0.00 0.00 0.00 80 1009.2
20260505182812 82 81 2.0 5.0 0.00 0.00 0.00 80 1009.5
20260505182309 82 97 4.0 7.0 0.00 0.00 0.00 80 1009.5
20260505181805 82 79 5.0 11.0 0.00 0.00 0.00 80 1009.5
20260505181303 82 62 6.0 12.0 0.00 0.00 0.00 81 1009.2
20260505180759 82 128 2.0 4.0 0.00 0.00 0.00 82 1009.2
20260505180255 82 46 5.0 9.0 0.00 0.00 0.00 82 1009.2
20260505175752 82 80 4.0 7.0 0.00 0.00 0.00 82 1009.2
20260505175249 82 53 4.0 10.0 0.00 0.00 0.00 82 1009.2
20260505174745 82 104 2.0 5.0 0.00 0.00 0.00 82 1009.2
20260505174242 82 48 3.0 7.0 0.00 0.00 0.00 82 1009.2
20260505173738 82 83 3.0 10.0 0.00 0.00 0.00 82 1009.2
20260505173235 82 56 1.0 4.0 0.00 0.00 0.00 82 1009.5
20260505172732 82 46 2.0 4.0 0.00 0.00 0.00 82 1009.5
20260505172229 82 43 2.0 5.0 0.00 0.00 0.00 82 1009.5
20260505171729 82 61 4.0 9.0 0.00 0.00 0.00 83 1009.5
20260505171226 82 97 4.0 9.0 0.00 0.00 0.00 83 1009.5
20260505170723 82 97 4.0 9.0 0.00 0.00 0.00 83 1009.5
20260505170220 82 87 5.0 10.0 0.00 0.00 0.00 83 1009.5
20260505165715 82 37 5.0 9.0 0.00 0.00 0.00 83 1009.5
20260505165211 82 36 4.0 13.0 0.00 0.00 0.00 84 1009.5
20260505164707 81 46 7.0 11.0 0.00 0.00 0.00 85 1009.5
20260505164205 81 47 4.0 7.0 0.00 0.00 0.00 85 1009.5
20260505163703 81 46 4.0 7.0 0.00 0.00 0.00 85 1009.5
20260505163201 81 50 3.0 5.0 0.00 0.00 0.00 86 1009.5
20260505162658 81 50 5.0 9.0 0.00 0.00 0.00 86 1009.5
20260505162155 81 36 5.0 9.0 0.00 0.00 0.00 86 1009.5
20260505161651 81 42 3.0 8.0 0.00 0.00 0.00 86 1009.5
20260505161149 81 80 1.0 2.0 0.00 0.00 0.00 86 1009.9
20260505160647 81 87 2.0 4.0 0.00 0.00 0.00 85 1009.9
20260505160144 81 88 2.0 3.0 0.00 0.00 0.00 85 1009.9
20260505153123 81 21 2.0 4.0 0.00 0.00 0.00 84 1009.9
20260505152620 81 58 2.0 5.0 0.00 0.00 0.00 84 1009.9
20260505152116 81 35 4.0 7.0 0.00 0.00 0.00 84 1009.9
20260505151611 81 26 2.0 4.0 0.00 0.00 0.00 84 1010.2
20260505151109 81 15 3.0 7.0 0.00 0.00 0.00 84 1010.2
20260505150605 81 47 3.0 4.0 0.00 0.00 0.00 84 1010.2
20260505140334 81 36 4.0 7.0 0.00 0.00 0.00 85 1011.2
20260505130257 80 333 0.0 3.0 0.00 0.00 0.00 84 1012.3
20260505124748 80 89 4.0 6.0 0.00 0.51 0.51 83 1012.3
20260505124245 80 50 3.0 7.0 0.00 0.51 0.51 83 1012.3
20260505123740 80 57 5.0 11.0 0.00 0.51 0.51 83 1012.3
20260505123237 80 68 5.0 10.0 0.00 0.51 0.51 83 1012.3
20260505122734 80 83 8.0 17.0 0.00 0.51 0.51 84 1012.6
20260505122231 80 116 5.0 10.0 0.00 0.51 0.51 86 1012.6
20260505121728 80 96 5.0 11.0 0.00 0.51 0.51 86 1012.6
20260505121224 80 90 7.0 14.0 0.00 0.51 0.51 86 1012.6
20260505120721 80 50 6.0 14.0 0.00 0.51 0.51 86 1012.6
20260505120217 80 46 5.0 11.0 0.00 0.51 0.51 86 1013.0
20260505115715 80 57 6.0 13.0 0.00 0.51 0.51 86 1013.0
20260505115214 80 39 9.0 15.0 0.00 0.51 0.51 86 1013.0
20260505114711 81 73 4.0 12.0 0.00 0.51 0.51 86 1013.0
20260505114206 81 39 8.0 15.0 0.00 0.51 0.51 86 1013.0
20260505113703 81 39 8.0 21.0 0.00 0.51 0.51 86 1013.0
20260505113200 81 40 7.0 11.0 0.00 0.51 0.51 86 1013.0
20260505112656 81 53 6.0 15.0 0.00 0.51 0.51 86 1012.6
20260505112154 81 95 6.0 15.0 0.00 0.51 0.51 86 1012.6
20260505111653 81 41 3.0 6.0 0.00 0.51 0.51 86 1012.6
20260505111149 81 42 2.0 8.0 0.47 0.49 0.49 85 1012.6
20260505110646 81 44 6.0 15.0 0.00 0.49 0.49 84 1012.6
20260505110143 82 45 6.0 15.0 0.00 0.49 0.49 82 1012.6
20260505102119 82 44 3.0 6.0 0.00 0.49 0.49 83 1012.3
20260505101618 82 71 4.0 8.0 0.00 0.49 0.49 83 1012.3
20260505101113 81 62 2.0 4.0 0.00 0.49 0.49 84 1011.9
20260505100610 81 60 2.0 6.0 0.00 0.49 0.49 84 1011.9
20260505100107 81 92 2.0 8.0 0.00 0.49 0.49 84 1011.9
20260505095603 81 104 2.0 7.0 0.00 0.49 0.49 84 1011.9
20260505095100 81 43 4.0 9.0 0.00 0.49 0.49 85 1011.6
20260505094556 81 46 1.0 4.0 0.00 0.49 0.49 85 1011.9
20260505094052 81 105 3.0 6.0 0.00 0.49 0.49 85 1011.9
20260505093549 81 99 4.0 8.0 0.00 0.49 0.49 86 1011.9
20260505093046 81 43 5.0 8.0 0.00 0.49 0.49 86 1011.9
20260505092544 81 97 3.0 6.0 0.00 0.49 0.49 87 1011.9
20260505092042 81 48 3.0 8.0 0.00 0.49 0.49 87 1011.9
20260505091538 81 67 3.0 7.0 0.00 0.49 0.49 86 1011.6
20260505091037 81 96 5.0 9.0 0.00 0.49 0.49 86 1011.6
20260505090534 81 114 4.0 12.0 0.00 0.49 0.49 85 1011.6
20260505090032 82 67 9.0 21.0 4.72 0.38 0.38 82 1011.2
20260505085530 83 45 3.0 8.0 0.00 0.36 0.36 81 1011.2
20260505085028 83 62 2.0 6.0 0.00 0.36 0.36 80 1011.2
20260505084526 83 52 2.0 6.0 0.00 0.36 0.36 80 1011.2
20260505084023 83 56 2.0 4.0 0.00 0.36 0.36 79 1011.2
20260505083520 83 78 2.0 4.0 0.00 0.36 0.36 79 1011.2
20260505083017 83 76 1.0 3.0 0.00 0.36 0.36 79 1011.2
20260505082512 83 87 4.0 10.0 0.00 0.36 0.36 80 1011.2
20260505082009 83 98 4.0 8.0 0.00 0.36 0.36 81 1011.2
20260505081506 83 144 2.0 4.0 0.00 0.36 0.36 79 1010.9
20260505081003 84 124 4.0 7.0 0.00 0.36 0.36 78 1010.9
20260505080459 84 52 5.0 10.0 0.00 0.36 0.36 78 1010.6
20260505075955 84 40 9.0 18.0 0.00 0.36 0.36 80 1010.6
20260505075452 84 11 5.0 11.0 0.00 0.36 0.36 80 1010.6
20260505074949 84 70 4.0 9.0 0.00 0.36 0.36 80 1010.6
20260505074446 84 48 8.0 16.0 0.00 0.36 0.36 79 1010.6
20260505073943 84 34 6.0 15.0 0.00 0.36 0.36 79 1010.6
20260505073441 84 83 6.0 13.0 0.00 0.36 0.36 80 1010.6
20260505072938 84 90 6.0 10.0 0.00 0.36 0.36 79 1010.6
20260505072434 84 47 4.0 9.0 0.00 0.36 0.36 79 1010.6
20260505071930 84 65 3.0 9.0 0.00 0.36 0.36 79 1010.2
20260505071426 84 68 7.0 14.0 0.00 0.36 0.36 78 1010.2
20260505070925 84 49 10.0 20.0 0.00 0.36 0.36 77 1009.9
20260505070421 85 25 6.0 13.0 0.00 0.36 0.36 76 1009.9
20260505065916 85 35 9.0 14.0 0.00 0.36 0.36 77 1009.5
20260505065413 85 52 5.0 11.0 0.00 0.36 0.36 77 1009.9
20260505064910 85 46 9.0 13.0 0.00 0.36 0.36 77 1009.9
20260505064407 85 37 8.0 15.0 0.00 0.36 0.36 77 1009.9
20260505063906 85 46 7.0 14.0 0.00 0.36 0.36 77 1009.9
20260505063402 85 34 8.0 14.0 0.00 0.36 0.36 77 1009.5
20260505062858 85 43 10.0 16.0 0.00 0.36 0.36 77 1009.5
20260505062355 85 34 9.0 19.0 0.00 0.36 0.36 77 1009.5
20260505061852 85 39 10.0 17.0 0.00 0.36 0.36 77 1009.5
20260505061351 85 47 7.0 14.0 0.00 0.36 0.36 77 1009.5
20260505060848 85 34 8.0 14.0 0.00 0.36 0.36 77 1009.5
20260505060344 85 46 7.0 11.0 0.00 0.36 0.36 77 1009.5
20260505055840 85 43 6.0 14.0 0.00 0.36 0.36 78 1009.5
20260505055336 85 41 6.0 14.0 0.00 0.36 0.36 78 1009.5
20260505054834 84 57 4.0 9.0 0.00 0.36 0.36 79 1009.5
20260505054331 84 42 8.0 17.0 0.00 0.36 0.36 79 1009.5
20260505053829 84 43 6.0 12.0 0.00 0.36 0.36 80 1009.5
20260505053326 84 31 6.0 9.0 0.00 0.36 0.36 79 1009.5
20260505052822 84 56 4.0 10.0 0.00 0.36 0.36 79 1009.5
20260505052319 84 40 5.0 9.0 0.00 0.36 0.36 79 1009.5
20260505051817 84 41 6.0 12.0 0.00 0.36 0.36 78 1009.2
20260505051314 85 26 5.0 10.0 0.00 0.36 0.36 78 1009.2
20260505050812 85 28 6.0 11.0 0.00 0.36 0.36 80 1009.2
20260505050310 84 48 4.0 8.0 0.00 0.36 0.36 82 1009.2
20260505041740 87 53 6.0 13.0 0.00 0.32 0.32 73 1009.5
20260505041237 87 34 6.0 10.0 0.00 0.32 0.32 73 1009.5
20260505040734 87 34 6.0 11.0 0.00 0.32 0.32 73 1009.5
20260505040232 87 43 7.0 13.0 0.00 0.32 0.32 73 1009.5
20260505035729 87 81 6.0 10.0 0.00 0.32 0.32 74 1009.5
20260505035224 87 47 5.0 9.0 0.00 0.32 0.32 74 1009.5
20260505034721 87 54 5.0 11.0 0.00 0.32 0.32 73 1009.5
20260505034218 87 9 4.0 9.0 0.00 0.32 0.32 73 1009.5
20260505033715 87 62 5.0 10.0 0.00 0.32 0.32 73 1009.5
20260505033213 87 41 5.0 11.0 0.00 0.32 0.32 72 1009.5
20260505032711 87 23 6.0 14.0 0.00 0.32 0.32 72 1009.5
20260505032206 88 48 7.0 16.0 0.00 0.32 0.32 72 1009.9
20260505031704 88 42 6.0 14.0 0.00 0.32 0.32 72 1009.9
20260505031200 88 50 3.0 7.0 0.00 0.32 0.32 72 1009.9
20260505030657 87 39 8.0 13.0 0.00 0.32 0.32 72 1009.9
20260505030153 87 48 7.0 13.0 0.00 0.32 0.32 73 1009.9
20260505025649 87 31 6.0 13.0 0.00 0.32 0.32 73 1009.9
20260505025148 87 39 7.0 16.0 0.00 0.32 0.32 73 1009.9
20260505024645 87 58 6.0 10.0 0.00 0.32 0.32 73 1010.2
20260505024142 87 53 4.0 10.0 0.00 0.32 0.32 73 1009.9
20260505023639 87 60 5.0 16.0 0.00 0.32 0.32 73 1009.9
20260505023137 87 67 5.0 10.0 0.00 0.32 0.32 73 1010.2
20260505022634 87 62 7.0 14.0 0.00 0.32 0.32 72 1010.2
20260505022131 87 52 3.0 8.0 0.00 0.32 0.32 73 1010.2
20260505021627 87 59 4.0 10.0 0.00 0.32 0.32 73 1010.2
20260505021124 86 46 6.0 13.0 0.00 0.32 0.32 75 1010.2
20260505020620 86 89 4.0 7.0 0.00 0.32 0.32 75 1010.2
20260505020116 86 47 4.0 9.0 0.00 0.32 0.32 75 1010.6
20260505015613 86 83 4.0 10.0 0.00 0.32 0.32 74 1010.6
20260505015110 87 28 6.0 8.0 0.00 0.32 0.32 74 1010.6
20260505014607 86 85 4.0 11.0 0.00 0.32 0.32 74 1010.6
20260505014104 86 99 6.0 11.0 0.00 0.32 0.32 73 1010.6
20260505013601 86 91 3.0 4.0 0.00 0.32 0.32 74 1010.6
20260505013058 86 21 2.0 4.0 0.00 0.32 0.32 74 1010.6
20260505012556 86 56 2.0 7.0 0.00 0.32 0.32 73 1010.6
20260505012053 86 44 4.0 15.0 0.00 0.32 0.32 73 1010.6
20260505011548 86 51 4.0 10.0 0.00 0.32 0.32 73 1010.6
20260505011046 86 99 4.0 7.0 0.00 0.32 0.32 73 1010.9
20260505010541 86 141 2.0 5.0 0.00 0.32 0.32 73 1010.6
20260505010038 86 80 5.0 13.0 0.00 0.32 0.32 73 1010.9
20260505005534 86 74 2.0 6.0 0.00 0.32 0.32 73 1010.9
20260505005032 86 120 2.0 6.0 0.00 0.32 0.32 73 1010.9
20260505004529 86 96 2.0 5.0 0.00 0.32 0.32 74 1010.9
20260505004026 86 164 1.0 3.0 0.00 0.32 0.32 74 1010.9
20260505003523 85 124 4.0 10.0 0.00 0.32 0.32 73 1010.9
20260505003020 85 67 3.0 7.0 0.00 0.32 0.32 73 1010.9
20260505002521 85 45 8.0 18.0 0.00 0.32 0.32 73 1010.9
20260505002020 85 80 4.0 14.0 0.00 0.32 0.32 74 1010.9
20260505001517 85 104 6.0 11.0 0.00 0.32 0.32 75 1010.6
20260505001014 85 110 4.0 7.0 0.00 0.32 0.32 74 1010.6
20260505000511 85 69 7.0 13.0 0.00 0.32 0.32 74 1010.6
20260505000009 85 55 10.0 18.0 0.00 0.32 0.32 75 1010.6
20260504235505 85 117 4.0 8.0 0.00 0.32 0.32 77 1010.6
20260504235001 85 41 4.0 8.0 0.00 0.32 0.32 77 1010.6
20260504234459 85 79 5.0 10.0 0.00 0.32 0.32 77 1010.6
20260504233955 85 57 8.0 12.0 0.00 0.32 0.32 77 1010.6
20260504233451 84 47 4.0 11.0 0.00 0.32 0.32 79 1010.6
20260504232948 84 93 5.0 12.0 0.00 0.32 0.32 79 1010.6
20260504232445 84 49 9.0 14.0 0.00 0.32 0.32 80 1010.6
20260504231943 84 58 3.0 9.0 0.00 0.32 0.32 81 1010.6
20260504231439 84 54 6.0 10.0 0.00 0.32 0.32 81 1010.6
20260504230935 84 60 8.0 15.0 0.00 0.32 0.32 81 1010.6
20260504230432 84 104 6.0 14.0 0.00 0.32 0.32 82 1010.6
20260504225931 84 60 6.0 12.0 0.00 0.32 0.32 82 1010.6
20260504225427 84 87 7.0 23.0 0.00 0.32 0.32 81 1010.6
20260504224925 84 64 5.0 10.0 0.00 0.32 0.32 79 1010.6
20260504224421 84 95 5.0 10.0 0.00 0.32 0.32 78 1010.6
20260504223919 84 96 3.0 8.0 0.00 0.32 0.32 78 1010.6
20260504223414 84 99 7.0 14.0 0.00 0.32 0.32 78 1010.6
20260504222910 84 36 7.0 13.0 0.00 0.32 0.32 79 1010.6
20260504222408 84 87 4.0 15.0 0.00 0.32 0.32 79 1010.6
20260504221906 84 57 5.0 14.0 0.00 0.32 0.32 78 1010.6
20260504221402 84 45 4.0 9.0 0.00 0.32 0.32 78 1010.6
20260504220859 84 63 3.0 6.0 0.00 0.32 0.32 78 1010.6
20260504220356 84 41 5.0 11.0 0.00 0.32 0.32 78 1010.2
20260504215853 84 93 4.0 9.0 0.00 0.32 0.32 79 1010.2
20260504215349 83 112 3.0 6.0 0.00 0.32 0.32 79 1010.2
20260504214846 83 54 3.0 7.0 0.00 0.32 0.32 79 1010.6
20260504214343 83 42 5.0 11.0 0.00 0.32 0.32 79 1010.6
20260504213839 83 49 5.0 9.0 0.00 0.32 0.32 79 1010.6
20260504213335 83 106 6.0 11.0 0.00 0.32 0.32 79 1010.6
20260504212833 83 104 3.0 8.0 0.00 0.32 0.32 80 1010.6
20260504212328 83 87 6.0 10.0 0.00 0.32 0.32 80 1010.6
20260504211827 83 68 8.0 16.0 0.00 0.32 0.32 80 1010.6
20260504211328 83 59 6.0 13.0 0.00 0.32 0.32 82 1010.6
20260504210825 83 62 3.0 7.0 0.00 0.32 0.32 82 1010.2
20260504210322 83 65 8.0 20.0 0.00 0.32 0.32 82 1010.2
20260504205819 83 28 5.0 9.0 0.00 0.32 0.32 82 1010.6
20260504205317 82 64 4.0 10.0 0.00 0.32 0.32 83 1010.6